Terminal Aerodrome Forecast
Issued by NWS

Home | Current Version | Previous Version | Text Only | Print | Product List | Glossary On
Versions: 1 2 3 4 5 6 7 8 9 10 11 12 13 14 15 16 17 18 19 20
000
FTUS43 KDLH 251100
TAFHIB
TAF
KHIB 251125Z 2512/2612 14004KT P6SM VCSH SCT025 BKN060
     FM251500 18006KT P6SM VCSH SCT025 BKN050
      TEMPO 2515/2519 BKN025
     FM251900 18007KT P6SM SCT025 BKN040
      TEMPO 2519/2523 4SM TSRA BR BKN015CB
     FM260200 21004KT 4SM BR SCT015
     FM260700 29004KT 6SM BR FEW010=

USA.gov is the U.S. government's official web portal to all federal, state and local government web resources and services.